McCall, ID

4:45 AM MDT on May 29, 2017 (GMT -0600)
McCall

Weather History for KMYL - May, 2013

Change the Weather History Date:

Tuesday, May 14, 2013

  Actual Average Record
Temperature  
Mean Temperature 52 °F 46 °F  
Max Temperature 66 °F 59 °F 81 °F (1936)
Min Temperature 38 °F 33 °F 19 °F (1970)
Degree Days  
Heating Degree Days 13 19  
Month to date heating degree days 172 298  
Since 1 July heating degree days 8063 8933  
Cooling Degree Days 0 0  
Month to date cooling degree days 0 0  
Year to date cooling degree days 0 0  
Growing Degree Days 2 (Base 50)    
Moisture  
Dew Point 30 °F    
Average Humidity 50    
Maximum Humidity 85    
Minimum Humidity 14    
Precipitation  
Precipitation 0.00 in 0.08 in 0.47 in (1981)
Month to date precipitation 0.02 0.97  
Year to date precipitation 7.64 8.56  
Sea Level Pressure  
Sea Level Pressure 29.99 in    
Wind  
Wind Speed 6 mph (WNW)    
Max Wind Speed 20 mph    
Max Gust Speed 25 mph    
Visibility 10 miles    
Events      
T = Trace of Precipitation, MM = Missing Value Source: NWS Daily Summary

Daily Weather History Graph

Daily Weather History Graph

Search for Another Location

Airport or City:

Trip Planner

Search our weather history database for the weather conditions in past years. The results will help you decide how hot, cold, wet, or windy it might be!

Date:

Astronomy

May. 14, 2013 Rise Set
Actual Time 6:16 AM MDT 9:05 PM MDT
Civil Twilight 5:42 AM MDT 9:39 PM MDT
Nautical Twilight 4:59 AM MDT 10:23 PM MDT
Astronomical Twilight 4:08 AM MDT 11:14 PM MDT
Moon 10:00 AM MDT (5/14) 12:16 AM MDT (5/14)
Length of Visible Light 15h 57m
Length of Day
14h 49m
Waxing Crescent, 19% of the Moon is Illuminated
May 14
Waxing Crescent
May 17
First Quarter
May 24
Full
May 31
Last Quarter
Jun 8
New

Hourly Weather History & Observations

Time (MDT) Temp. Windchill Dew Point Humidity Pressure Visibility Wind Dir Wind Speed Gust Speed Precip Events Conditions
12:51 AM 50.0 °F - 41.0 °F 71% 30.00 in 10.0 mi NNW 6.9 mph - N/A   Scattered Clouds
1:51 AM 48.9 °F - 39.0 °F 69% 30.01 in 10.0 mi North 11.5 mph - N/A   Scattered Clouds
2:51 AM 46.0 °F - 39.0 °F 76% 30.01 in 10.0 mi Calm Calm - N/A   Mostly Cloudy
3:51 AM 45.0 °F 43.5 °F 39.0 °F 80% 30.00 in 10.0 mi NNW 3.5 mph - N/A   Clear
4:51 AM 43.0 °F 41.3 °F 37.9 °F 82% 30.01 in 10.0 mi NNW 3.5 mph - N/A   Clear
5:51 AM 39.0 °F - 35.1 °F 86% 30.01 in 10.0 mi Calm Calm - N/A   Clear
6:51 AM 39.9 °F 37.8 °F 36.0 °F 86% 30.02 in 10.0 mi NNW 3.5 mph - N/A   Clear
7:51 AM 44.1 °F 41.5 °F 36.0 °F 73% 30.02 in 10.0 mi NNW 4.6 mph - N/A   Clear
8:51 AM 46.9 °F - 37.9 °F 71% 30.04 in 10.0 mi Calm Calm - N/A   Clear
9:51 AM 51.1 °F - 37.9 °F 61% 30.04 in 10.0 mi Variable 3.5 mph - N/A   Clear
10:51 AM 57.0 °F - 35.1 °F 44% 30.02 in 10.0 mi SSE 8.1 mph - N/A   Clear
12:51 PM 62.1 °F - 17.1 °F 18% 30.00 in 10.0 mi SW 11.5 mph 18.4 mph N/A   Clear
1:51 PM 63.0 °F - 12.0 °F 14% 29.99 in 10.0 mi SSW 12.7 mph 16.1 mph N/A   Clear
2:51 PM 63.0 °F - 17.1 °F 17% 29.97 in 10.0 mi South 11.5 mph 19.6 mph N/A   Clear
3:51 PM 64.9 °F - 24.1 °F 21% 29.96 in 10.0 mi West 9.2 mph - N/A   Clear
4:51 PM 64.9 °F - 25.0 °F 22% 29.95 in 10.0 mi SSW 10.4 mph 17.3 mph N/A   Clear
5:51 PM 64.0 °F - 27.0 °F 25% 29.96 in 10.0 mi WSW 10.4 mph 17.3 mph N/A   Clear
6:51 PM 63.0 °F - 21.0 °F 20% 29.96 in 10.0 mi West 8.1 mph - N/A   Clear
7:51 PM 59.0 °F - 21.9 °F 24% 29.97 in 10.0 mi WNW 5.8 mph - N/A   Clear
8:51 PM 57.9 °F - 24.1 °F 27% 29.96 in 10.0 mi NW 3.5 mph - N/A   Clear
9:51 PM 52.0 °F - 28.9 °F 41% 29.99 in 10.0 mi Calm Calm - N/A   Clear
10:51 PM 50.0 °F - 33.1 °F 52% 29.98 in 10.0 mi NNW 3.5 mph - N/A   Clear
11:51 PM 50.0 °F - 34.0 °F 54% 29.98 in 10.0 mi NW 4.6 mph - N/A   Clear